Weather History for Knoxville, IA

Change the Weather History Date:

Monday, October 7, 2013

  Actual Average Record
Temperature  
Mean Temperature 58 °F -  
Max Temperature 73 °F 68 °F 88 °F (1949)
Min Temperature 42 °F 43 °F 24 °F (1952)
Degree Days  
Heating Degree Days 8    
Growing Degree Days 8 (Base 50)    
Moisture  
Dew Point 42 °F    
Average Humidity 62    
Maximum Humidity 93    
Minimum Humidity 29    
Precipitation  
Precipitation 0.00 in - - ()
Sea Level Pressure  
Sea Level Pressure 30.00 in    
Wind  
Wind Speed 10 mph (West)    
Max Wind Speed 18 mph    
Max Gust Speed 25 mph    
Visibility 10 miles    
Events      
Averages and records for this station are not official NWS values.
T = Trace of Precipitation, MM = Missing Value Source: NWS Daily Summary

Daily Weather History Graph

Daily Weather History Graph

Search for Another Location

Airport:

Trip Planner

Search our weather history database for the weather conditions in past years. The results will help you decide how hot, cold, wet, or windy it might be!

Date:

Astronomy

Oct. 07, 2013 Rise Set
Actual Time 7:15 AM CDT 6:43 PM CDT
Civil Twilight 6:48 AM CDT 7:11 PM CDT
Nautical Twilight 6:16 AM CDT 7:43 PM CDT
Astronomical Twilight 5:44 AM CDT 8:15 PM CDT
Moon 10:08 AM CDT (10/7) 8:27 PM CDT (10/7)
Length of Visible Light 12h 23m
Length of Day
11h 28m
Waxing Crescent, 9% of the Moon is Illuminated
Oct 7
Waxing Crescent
Oct 11
First Quarter
Oct 18
Full
Oct 26
Last Quarter
Nov 3
New

Hourly Weather History & Observations

Time (CDT) Temp. Windchill Dew Point Humidity Pressure Visibility Wind Dir Wind Speed Gust Speed Precip Events Conditions
12:15 AM 50.0 °F - 46.4 °F 87% 29.90 in 10.0 mi WNW 9.2 mph - N/A   Overcast
12:35 AM 50.0 °F - 46.4 °F 87% 29.90 in 10.0 mi WNW 10.4 mph - N/A   Overcast
12:55 AM 50.0 °F - 46.4 °F 87% 29.90 in 10.0 mi WNW 10.4 mph - N/A   Overcast
1:15 AM 50.0 °F - 46.4 °F 87% 29.91 in 10.0 mi WNW 11.5 mph - N/A   Overcast
1:35 AM 50.0 °F - 46.4 °F 87% 29.91 in 10.0 mi WNW 10.4 mph - N/A   Overcast
1:55 AM 50.0 °F - 46.4 °F 87% 29.92 in 10.0 mi WNW 11.5 mph - N/A   Overcast
2:15 AM 48.2 °F - 46.4 °F 93% 29.92 in 10.0 mi WNW 10.4 mph - N/A   Scattered Clouds
2:35 AM 48.2 °F - 44.6 °F 87% 29.93 in 10.0 mi WNW 9.2 mph - N/A   Clear
2:55 AM 48.2 °F - 44.6 °F 87% 29.93 in 10.0 mi WNW 8.1 mph - N/A   Clear
3:15 AM 46.4 °F 42.9 °F 44.6 °F 93% 29.92 in 10.0 mi WNW 6.9 mph - N/A   Clear
3:35 AM 46.4 °F 42.4 °F 42.8 °F 87% 29.93 in 10.0 mi WNW 8.1 mph - N/A   Clear
3:55 AM 44.6 °F 40.7 °F 42.8 °F 93% 29.93 in 10.0 mi WNW 6.9 mph - N/A   Clear
4:15 AM 44.6 °F 40.2 °F 41.0 °F 87% 29.94 in 10.0 mi NW 8.1 mph - N/A   Clear
4:35 AM 44.6 °F 40.2 °F 41.0 °F 87% 29.95 in 10.0 mi WNW 8.1 mph - N/A   Clear
4:55 AM 44.6 °F 40.2 °F 41.0 °F 87% 29.95 in 10.0 mi WNW 8.1 mph - N/A   Clear
5:15 AM 44.6 °F 39.7 °F 41.0 °F 87% 29.96 in 10.0 mi WNW 9.2 mph 15.0 mph N/A   Clear
5:35 AM 44.6 °F 38.8 °F 41.0 °F 87% 29.96 in 10.0 mi WNW 11.5 mph - N/A   Clear
5:55 AM 44.6 °F 39.7 °F 41.0 °F 87% 29.96 in 10.0 mi WNW 9.2 mph - N/A   Clear
6:15 AM 42.8 °F 38.0 °F 39.2 °F 87% 29.97 in 10.0 mi West 8.1 mph - N/A   Clear
6:35 AM 42.8 °F 38.0 °F 39.2 °F 87% 29.98 in 10.0 mi West 8.1 mph - N/A   Clear
6:55 AM 42.8 °F 38.0 °F 39.2 °F 87% 29.98 in 10.0 mi West 8.1 mph - N/A   Clear
7:15 AM 42.8 °F 38.0 °F 39.2 °F 87% 29.98 in 10.0 mi West 8.1 mph - N/A   Clear
7:35 AM 42.8 °F 38.6 °F 39.2 °F 87% 29.98 in 10.0 mi West 6.9 mph - N/A   Clear
7:55 AM 42.8 °F 38.0 °F 39.2 °F 87% 29.99 in 10.0 mi West 8.1 mph - N/A   Clear
8:15 AM 44.6 °F 40.2 °F 41.0 °F 87% 30.00 in 10.0 mi West 8.1 mph - N/A   Clear
8:35 AM 46.4 °F 41.9 °F 41.0 °F 81% 30.01 in 10.0 mi West 9.2 mph - N/A   Clear
8:55 AM 48.2 °F - 41.0 °F 76% 30.01 in 10.0 mi West 9.2 mph - N/A   Clear
9:15 AM 50.0 °F - 42.8 °F 76% 30.02 in 10.0 mi West 6.9 mph - N/A   Clear
9:35 AM 51.8 °F - 42.8 °F 71% 30.03 in 10.0 mi West 8.1 mph - N/A   Clear
9:55 AM 53.6 °F - 44.6 °F 72% 30.04 in 10.0 mi West 9.2 mph - N/A   Clear
10:15 AM 55.4 °F - 42.8 °F 63% 30.04 in 10.0 mi West 8.1 mph - N/A   Clear
10:35 AM 57.2 °F - 44.6 °F 63% 30.04 in 10.0 mi West 6.9 mph - N/A   Clear
10:55 AM 59.0 °F - 42.8 °F 55% 30.05 in 10.0 mi WNW 9.2 mph - N/A   Clear
11:15 AM 62.6 °F - 44.6 °F 52% 30.04 in 10.0 mi West 10.4 mph - N/A   Clear
11:35 AM 64.4 °F - 42.8 °F 45% 30.04 in 10.0 mi West 11.5 mph - N/A   Clear
11:55 AM 66.2 °F - 41.0 °F 40% 30.04 in 10.0 mi West 13.8 mph - N/A   Clear
12:15 PM 68.0 °F - 41.0 °F 37% 30.04 in 10.0 mi West 12.7 mph - N/A   Clear
12:35 PM 69.8 °F - 41.0 °F 35% 30.04 in 10.0 mi WNW 18.4 mph - N/A   Clear
12:55 PM 69.8 °F - 39.2 °F 33% 30.03 in 10.0 mi West 15.0 mph 25.3 mph N/A   Clear
1:15 PM 69.8 °F - 41.0 °F 35% 30.03 in 10.0 mi West 15.0 mph - N/A   Clear
1:35 PM 71.6 °F - 41.0 °F 33% 30.02 in 10.0 mi WNW 13.8 mph - N/A   Clear
1:55 PM 71.6 °F - 41.0 °F 33% 30.01 in 10.0 mi West 15.0 mph 20.7 mph N/A   Clear
2:15 PM 73.4 °F - 41.0 °F 31% 30.01 in 10.0 mi West 15.0 mph - N/A   Clear
2:35 PM 73.4 °F - 41.0 °F 31% 30.02 in 10.0 mi West 13.8 mph - N/A   Clear
2:55 PM 73.4 °F - 41.0 °F 31% 30.01 in 10.0 mi West 15.0 mph 21.9 mph N/A   Clear
3:15 PM 73.4 °F - 39.2 °F 29% 30.01 in 10.0 mi West 11.5 mph 21.9 mph N/A   Clear
3:35 PM 73.4 °F - 39.2 °F 29% 30.01 in 10.0 mi West 15.0 mph - N/A   Clear
3:55 PM 73.4 °F - 39.2 °F 29% 30.01 in 10.0 mi West 11.5 mph 19.6 mph N/A   Clear
4:15 PM 73.4 °F - 39.2 °F 29% 30.01 in 10.0 mi West 12.7 mph - N/A   Clear
4:35 PM 73.4 °F - 41.0 °F 31% 30.01 in 10.0 mi WSW 12.7 mph - N/A   Clear
4:55 PM 73.4 °F - 41.0 °F 31% 30.01 in 10.0 mi WSW 10.4 mph 18.4 mph N/A   Clear
5:15 PM 71.6 °F - 41.0 °F 33% 30.01 in 10.0 mi West 6.9 mph 17.3 mph N/A   Clear
5:35 PM 71.6 °F - 41.0 °F 33% 30.01 in 10.0 mi WSW 9.2 mph - N/A   Clear
5:55 PM 71.6 °F - 41.0 °F 33% 30.01 in 10.0 mi WSW 8.1 mph - N/A   Clear
6:15 PM 69.8 °F - 41.0 °F 35% 30.01 in 10.0 mi WSW 4.6 mph - N/A   Clear
6:35 PM 68.0 °F - 41.0 °F 37% 30.01 in 10.0 mi WSW 4.6 mph - N/A   Clear
6:55 PM 66.2 °F - 41.0 °F 40% 30.01 in 10.0 mi SW 4.6 mph - N/A   Clear
7:15 PM 64.4 °F - 42.8 °F 45% 30.01 in 10.0 mi SW 4.6 mph - N/A   Clear
7:35 PM 64.4 °F - 41.0 °F 42% 30.02 in 10.0 mi SSW 5.8 mph - N/A   Clear
7:55 PM 62.6 °F - 41.0 °F 45% 30.02 in 10.0 mi SSW 5.8 mph - N/A   Clear
8:15 PM 62.6 °F - 42.8 °F 48% 30.03 in 10.0 mi SSW 5.8 mph - N/A   Clear
8:35 PM 60.8 °F - 42.8 °F 52% 30.03 in 10.0 mi South 5.8 mph - N/A   Clear
8:55 PM 59.0 °F - 44.6 °F 59% 30.04 in 10.0 mi SSW 8.1 mph - N/A   Clear
9:15 PM 59.0 °F - 44.6 °F 59% 30.04 in 10.0 mi SSW 6.9 mph - N/A   Clear
9:35 PM 59.0 °F - 44.6 °F 59% 30.04 in 10.0 mi SSW 6.9 mph - N/A   Clear
9:55 PM 57.2 °F - 44.6 °F 63% 30.05 in 10.0 mi SSW 6.9 mph - N/A   Clear
10:15 PM 55.4 °F - 44.6 °F 67% 30.05 in 10.0 mi SSW 8.1 mph - N/A   Clear
10:35 PM 55.4 °F - 44.6 °F 67% 30.06 in 10.0 mi SSW 6.9 mph - N/A   Clear
10:55 PM 55.4 °F - 44.6 °F 67% 30.06 in 10.0 mi SSW 8.1 mph - N/A   Clear
11:15 PM 55.4 °F - 44.6 °F 67% 30.06 in 10.0 mi SSW 8.1 mph - N/A   Clear
11:35 PM 55.4 °F - 44.6 °F 67% 30.06 in 10.0 mi SSW 8.1 mph - N/A   Clear
11:55 PM 57.2 °F - 44.6 °F 63% 30.06 in 10.0 mi SSW 9.2 mph - N/A   Clear